GFSFLT2_con_lsi_132.txt.gz
Lid_Strength_Index
5 5 4 4 4 3 3 2 2 2 2 1 1 1 1 1 1 0 0 1 1 1 1 2 2 1 1 1 2 3 3 3
5 5 4 4 3 3 3 3 2 1 1 1 2 1 1 1 1 0 0 0 1 1 1 2 3 6 6 5 5 5 5 4
5 5 5 4 4 4 3 2 2 1 2 2 2 1 1 1 1 1 0 1 2 2 2 3 5 8 9 9 7 7 6 6
5 5 4 5 4 4 3 3 2 2 2 2 2 2 2 2 2 2 2 3 3 3 4 5 7 9 10 10 9 8 6 5
6 5 5 5 4 4 4 4 3 3 4 4 3 3 3 3 3 4 4 4 4 4 5 6 9 10 11 11 10 8 6 4
7 6 6 5 4 5 5 4 5 5 5 5 4 4 4 4 5 5 5 4 5 5 6 7 8 11 11 11 10 6 5 5
7 6 6 6 6 5 5 6 6 6 6 5 5 5 5 6 6 6 6 6 6 6 5 6 7 10 11 10 10 7 7 7
7 7 6 6 6 6 7 7 6 6 6 6 5 5 5 6 6 6 5 5 5 5 6 5 7 8 11 11 10 9 10 9
6 6 6 7 6 6 7 7 7 7 7 6 6 6 6 5 5 5 4 4 5 5 6 5 6 8 11 11 11 11 12 11
7 7 7 6 6 6 7 7 6 6 6 6 5 5 6 5 5 5 6 6 3 4 4 5 6 9 10 11 11 11 10 12
7 8 7 7 7 6 7 7 7 5 5 5 5 5 5 5 7 9 9 8 8 8 8 8 8 10 11 11 10 10 9 10
7 7 8 8 8 7 7 5 5 5 5 5 5 6 6 6 7 9 10 11 10 11 11 11 11 12 13 12 12 11 10 10
8 9 9 9 6 6 5 5 5 5 4 4 5 5 5 7 9 9 11 13 13 13 12 12 13 14 14 13 13 12 11 11
9 9 7 7 6 6 5 4 4 4 5 5 5 5 5 7 9 12 12 12 13 13 13 12 11 12 12 12 12 12 12 11
8 8 7 7 6 6 6 5 4 4 5 5 6 6 6 7 7 9 12 13 13 13 12 12 12 13 12 12 12 11 10 10
7 7 7 6 7 7 6 6 6 6 6 8 6 6 7 8 8 8 8 9 11 11 12 12 11 11 11 11 11 9 9 9
6 7 7 7 7 7 6 6 6 6 6 7 7 7 8 8 7 8 8 8 8 9 10 10 9 9 9 10 9 9 10 10
7 8 7 7 7 7 7 7 7 7 8 9 8 7 7 8 8 8 8 8 8 9 10 10 9 9 9 9 9 9 9 9
7 7 7 7 7 7 7 6 6 7 7 7 9 8 8 8 8 8 8 8 9 9 9 10 13 9 9 9 9 9 9 9
8 8 7 7 7 7 7 7 6 7 7 8 8 9 9 9 8 8 8 8 9 9 9 9 12 9 9 9 9 9 9 9

GFSFLT2_con_lsi_135.txt.gz
Lid_Strength_Index
6 5 5 4 4 3 3 4 4 3 4 5 4 4 4 3 3 3 3 4 4 3 4 6 6 7 7 7 7 7 8 7
6 5 5 4 4 3 3 4 3 4 4 5 4 3 3 3 3 3 3 3 4 4 7 8 9 9 9 9 9 9 8 8
6 6 5 4 4 4 4 3 4 3 4 3 4 3 3 3 3 4 4 4 4 5 8 9 10 10 11 11 11 11 10 9
6 5 5 5 5 4 4 4 3 4 4 5 4 4 4 5 5 5 5 5 6 6 8 10 11 11 11 10 10 12 10 8
6 6 6 6 5 4 4 5 5 6 5 5 4 5 6 6 5 5 6 6 6 7 9 12 13 13 12 11 10 11 9 7
7 7 7 7 6 7 6 6 7 6 6 5 5 6 7 7 6 7 7 6 7 8 9 11 13 12 11 11 9 10 9 9
9 8 8 7 7 7 8 8 7 6 6 7 7 7 7 7 8 8 7 7 8 8 8 9 12 13 10 10 11 11 10 10
9 8 8 8 8 8 8 8 8 8 8 8 7 7 7 8 9 9 8 9 9 8 8 9 10 13 10 10 11 12 12 12
8 8 9 9 9 9 9 9 9 8 7 7 7 8 8 8 8 8 8 8 8 8 8 9 11 12 12 10 10 13 11 12
9 9 9 9 9 9 9 9 8 8 8 8 8 9 9 11 12 12 11 10 10 10 9 9 12 13 11 11 11 11 11 12
8 9 9 8 8 8 8 8 8 8 8 9 9 10 11 11 12 13 13 13 13 12 12 14 14 14 15 12 12 12 11 12
9 9 9 9 8 8 8 7 7 8 8 9 9 9 11 12 12 13 14 15 15 14 14 16 16 15 16 15 14 14 12 12
9 9 9 9 8 8 8 8 7 8 8 8 9 10 12 13 13 14 15 15 15 16 15 16 16 16 15 13 13 14 13 12
9 10 9 9 8 8 7 6 7 8 9 8 8 11 11 12 14 15 12 12 12 12 12 13 14 12 11 11 11 11 11 11
10 10 10 9 9 9 8 8 8 9 9 10 9 9 10 12 13 14 16 14 12 12 12 12 12 12 11 11 11 11 11 11
10 9 9 9 9 9 8 8 8 10 10 9 11 11 11 11 11 12 13 14 15 14 12 12 11 10 10 10 10 10 12 11
9 9 8 8 9 9 8 9 10 10 10 11 11 11 11 11 11 12 12 12 14 14 14 12 11 10 10 10 10 12 12 12
10 10 9 9 10 10 9 10 10 11 11 9 10 11 11 11 12 12 12 12 13 13 14 14 13 12 12 12 12 12 12 12
9 9 9 9 9 8 8 10 11 11 11 11 10 11 11 12 12 12 12 12 13 13 14 13 13 12 13 13 13 12 12 12
10 10 10 10 9 9 10 10 10 10 11 11 11 11 11 12 13 13 13 13 13 13 13 12 12 12 13 13 13 13 12 12

GFSFLT2_con_lsi_141.txt.gz
Lid_Strength_Index
6 5 5 4 4 4 3 3 3 4 5 5 6 6 7 7 7 8 10 10 10 9 9 9 9 9 10 10 10 9 9 9
6 5 5 4 4 4 4 5 5 5 5 6 7 7 7 8 8 10 10 11 10 10 10 10 10 10 10 10 10 10 10 9
6 6 5 5 5 5 5 6 6 6 7 8 8 8 8 8 10 10 11 10 10 10 11 11 12 11 10 10 11 11 10 10
6 6 5 5 7 6 6 7 7 8 9 8 8 8 8 9 9 10 10 10 11 11 12 13 13 11 10 9 10 12 11 11
6 6 6 7 7 6 7 8 8 8 8 8 8 8 9 9 9 9 10 11 12 13 14 14 14 13 11 11 11 13 12 11
6 7 6 7 7 8 8 8 9 8 8 9 8 9 8 8 8 10 10 12 13 14 15 15 15 12 10 10 10 13 12 11
6 7 7 8 9 9 9 8 8 9 9 9 8 8 8 8 9 10 10 11 13 14 15 15 15 15 11 10 12 13 13 13
8 8 9 9 8 8 9 9 9 10 9 9 9 8 8 9 10 10 10 11 13 14 14 15 13 15 12 11 12 14 14 13
9 9 10 9 8 8 9 9 10 9 9 10 11 12 12 11 10 9 10 12 13 14 15 15 16 14 14 11 11 14 14 14
10 10 9 8 8 9 10 10 10 11 13 14 14 14 12 12 12 12 11 13 14 16 16 16 16 16 11 11 10 10 11 14
10 10 10 9 9 9 10 11 13 14 15 15 15 15 15 14 14 14 15 16 16 16 17 17 16 15 15 11 11 10 10 13
9 10 10 10 9 10 11 13 14 15 16 16 16 16 16 16 16 16 16 16 17 17 17 16 16 15 15 14 14 14 11 13
10 10 10 10 10 11 12 12 13 15 15 16 16 16 16 16 16 15 15 16 16 17 17 16 16 15 14 12 12 14 13 12
10 10 10 10 10 10 11 11 13 14 15 16 16 16 16 15 15 16 12 12 12 12 12 13 14 12 10 11 11 11 11 11
11 11 11 10 10 10 10 11 12 14 15 15 15 15 15 16 16 15 16 14 11 11 11 11 11 11 11 11 11 11 11 12
11 12 12 12 12 12 10 10 12 13 13 12 14 15 15 16 16 16 16 15 15 15 12 11 11 11 11 11 11 11 14 13
12 12 12 13 13 13 10 10 11 11 12 13 13 14 15 14 15 15 15 15 15 15 14 13 12 11 11 11 11 14 14 15
13 14 13 13 13 12 11 11 11 12 12 11 12 13 13 14 14 14 15 15 15 15 15 15 15 14 15 15 14 14 15 15
12 13 12 12 12 11 10 11 12 12 13 13 12 14 14 13 14 14 15 15 15 15 15 14 15 15 16 16 15 15 15 15
12 12 12 12 11 11 12 12 13 13 13 14 14 14 14 14 14 14 14 15 15 15 15 14 14 15 15 15 15 15 15 15

GFSFLT2_con_lsi_147.txt.gz
Lid_Strength_Index
4 4 3 3 3 3 3 3 2 3 4 4 5 4 4 5 5 6 7 7 7 8 7 6 7 5 5 4 4 4 4 4
4 4 4 3 3 3 3 3 3 4 4 5 6 6 6 6 6 8 8 7 8 8 7 7 6 6 5 5 5 5 5 5
5 4 4 4 4 3 3 3 4 4 6 7 8 9 8 9 10 10 10 9 9 9 9 8 7 7 7 6 6 5 6 6
5 5 4 4 4 4 3 4 5 6 8 9 9 10 10 11 11 12 11 10 10 10 9 9 9 9 10 9 6 6 6 6
6 5 4 4 4 4 5 6 7 8 9 9 10 10 11 11 12 12 12 11 10 10 10 9 9 9 11 10 9 7 7 7
5 5 4 4 4 5 6 7 8 9 9 9 9 11 11 11 11 12 12 11 11 11 10 10 10 11 11 12 10 8 8 7
5 5 5 6 6 6 7 9 9 9 10 10 10 10 10 11 13 13 12 12 12 11 11 10 10 10 12 12 9 8 8 8
6 6 6 7 7 7 9 10 10 10 9 9 9 9 11 12 13 12 12 11 11 11 11 10 10 10 12 12 9 8 8 9
7 8 8 8 7 8 10 10 10 9 9 9 9 10 11 12 12 12 11 11 11 11 11 10 10 10 11 11 10 8 9 9
9 10 9 9 9 10 10 10 9 8 8 9 10 10 10 12 12 12 11 11 11 11 11 11 11 10 10 10 11 10 9 9
10 10 11 11 10 10 10 10 8 9 9 9 10 10 11 11 12 12 12 11 11 12 12 12 11 9 9 10 10 10 10 10
11 12 13 13 11 10 10 10 10 10 10 10 10 11 11 12 12 12 12 12 12 12 12 11 10 9 9 9 8 8 10 9
12 14 14 13 12 12 11 10 10 10 10 10 11 11 12 12 12 12 12 11 12 12 10 10 10 10 10 10 10 9 10 11
13 13 13 13 13 12 12 11 10 10 11 10 11 12 12 12 12 13 14 13 13 12 11 10 10 10 11 11 11 12 12 11
13 14 14 13 13 12 11 11 10 11 11 12 12 12 12 12 12 13 13 12 11 11 11 11 11 11 11 11 12 12 12 10
13 13 13 13 13 13 12 11 11 11 12 12 12 12 12 12 12 11 10 10 11 10 11 10 11 11 12 12 11 10 10 10
12 12 12 13 13 13 12 12 12 12 12 12 12 12 11 10 10 9 9 10 10 10 10 11 11 12 12 11 11 9 10 11
10 11 11 11 12 11 11 11 11 11 12 12 11 10 9 9 9 9 9 10 10 10 10 10 9 9 10 10 9 10 10 11
9 10 10 10 11 10 10 10 9 9 9 9 10 9 9 9 9 9 9 9 9 10 10 11 14 9 10 10 10 10 10 10
10 10 9 9 8 8 8 8 8 8 9 9 9 9 9 9 8 8 8 9 9 10 10 11 13 9 10 10 10 10 10 10